Regional Weather Roundup
Issued by NWS

Home | Current Version | Previous Version | Text Only | Print | Product List | Glossary Off
Versions: 1 2 3 4 5 6 7 8 9 10 11 12 13 14 15 16 17 18 19 20 21 22 23 24 25 26 27 28 29 30 31 32 33 34 35 36 37 38 39 40 41 42 43 44 45 46 47 48 49 50

024
ASUS43 KOAX 211710
RWRNE

WEATHER ROUNDUP FOR NEBRASKA
NATIONAL WEATHER SERVICE OMAHA NE
1100 AM CST WED FEB 21 2018

NOTES: SATELLITE DATA IS BEING USED TO AUGMENT CLOUD COVER ABOVE
       12000 FEET.
       "FAIR" INDICATES FEW OR NO CLOUDS BELOW 12,000 FEET WITH NO
       SIGNIFICANT WEATHER AND/OR OBSTRUCTIONS TO VISIBILITY.


NEZ001>004-019>022-054>056-211800-
NEBRASKA PANHANDLE

CITY           SKY/WX    TMP DP  RH WIND       PRES   REMARKS
SCOTTSBLUFF    SUNNY      4  -3  73 E9        30.29R WCI -10
ALLIANCE       SUNNY      6   2  83 SE7       30.28F WCI  -6
CHADRON        MOSUNNY   -2 -12  62 NW3       30.30F
GORDON         FAIR       6  -3  63 SW8       30.30S WCI  -6
KIMBALL        SUNNY     21   6  51 S21       30.23S WCI   6
SIDNEY         SUNNY     22   8  55 S14       30.29S WCI   9
$$

NEZ057>060-069>072-079>082-211800-
SOUTHWEST NEBRASKA

CITY           SKY/WX    TMP DP  RH WIND       PRES   REMARKS
NORTH PLATTE   SUNNY     13   3  64 S6        30.48R WCI   4
IMPERIAL       SUNNY     16   7  67 SE12      30.42S WCI   3
LEXINGTON      SUNNY     18   4  55 S6        30.52F WCI  10
MCCOOK         SUNNY     18   4  54 S7        30.50F WCI   9
OGALLALA       SUNNY     13   4  67 S6        30.40S WCI   4
$$

NEZ005>010-023>029-035>040-094-211800-
NORTH CENTRAL NEBRASKA

CITY           SKY/WX    TMP DP  RH WIND       PRES   REMARKS
VALENTINE      SUNNY      6  -3  66 CALM      30.44R
AINSWORTH      MOSUNNY   12   2  66 SW10      30.45S WCI  -2
BROKEN BOW     SUNNY     14  -2  49 S12       30.50S WCI   0
O`NEILL        SUNNY     11   0  60 S12       30.55R WCI  -3
ORD            SUNNY     13   1  59 S8        30.54S WCI   2
THEDFORD       SUNNY     21   9  60 SE6       30.42S WCI  13
$$

NEZ041-046>049-061>064-073>077-083>087-211800-
SOUTH CENTRAL NEBRASKA

CITY           SKY/WX    TMP DP  RH WIND       PRES   REMARKS
GRAND ISLAND   SUNNY     17   3  54 E5        30.58R WCI  10
AURORA         SUNNY     17   1  49 SE5       30.58S WCI   9
HASTINGS       SUNNY     16   0  49 CALM      30.57S
HEBRON         SUNNY     19   1  45 E7        30.60F WCI  10
HOLDREGE       SUNNY     17   4  56 SW3       30.54S
KEARNEY        SUNNY     19   3  49 SE7       30.56S WCI  10
YORK           SUNNY     16   3  57 SE7       30.60S WCI   6
$$

NEZ011>018-030>034-042>045-211800-
NORTHEAST NEBRASKA

CITY           SKY/WX    TMP DP  RH WIND       PRES   REMARKS
NORFOLK        SUNNY     12   2  64 SE6       30.58F WCI   3
ALBION         SUNNY     15   2  58 SE6       30.58S WCI   6
BLAIR          MOSUNNY   16   9  72 NE3       30.63S
COLUMBUS       SUNNY     18   6  59 E3        30.63S
FREMONT        CLOUDY    16   7  67 CALM      30.64F
TEKAMAH        CLOUDY    14   6  70 CALM      30.67S
WAYNE          SUNNY     13   2  63 S3        30.62S
$$

NEZ050>053-065>068-078-088>093-211800-
SOUTHEAST NEBRASKA

CITY           SKY/WX    TMP DP  RH WIND       PRES   REMARKS
LINCOLN        CLOUDY    18   3  52 NE6       30.65S WCI  10
OMAHA EPPLEY   PTSUNNY   17   8  67 VRB3      30.66F
BEATRICE       CLOUDY    19   7  59 NE8       30.61F WCI   9
FALLS CITY     CLOUDY    18   9  68 NE6       30.63S WCI  10
NEBRASKA CITY  CLOUDY    17   9  71 NE7       30.63S WCI   7
PLATTSMOUTH    MOSUNNY   16   7  66 NE6       30.63F WCI   8
$$

NEZ044-045-051>053-067-211800-
OMAHA AREA

CITY           SKY/WX    TMP DP  RH WIND       PRES   REMARKS
OMAHA EPPLEY   PTSUNNY   17   8  67 VRB3      30.66F
BLAIR          MOSUNNY   16   9  72 NE3       30.63S
FREMONT        CLOUDY    16   7  67 CALM      30.64F
MILLARD        CLOUDY    18   4  54 N3        30.65S
OFFUTT AFB     CLOUDY    17   6  59 N6        30.65F WCI   9
PLATTSMOUTH    MOSUNNY   16   7  66 NE6       30.63F WCI   8
WAHOO          FAIR      17   7  65 NE3       30.64S
$$




USA.gov is the U.S. government's official web portal to all federal, state and local government web resources and services.